Time,TemperatureF,DewpointF,PressureIn,WindDirection,WindDirectionDegrees,WindSpeedMPH,WindSpeedGustMPH,Humidity,HourlyPrecipIn,Conditions,Clouds,dailyrainin,SoftwareType,DateUTC
2013-09-06 09:11:00,55.0,41.0,-100.00,SSW,199,0.0,2.0,59,-99.99,,,0.00,,2013-09-06 15:11:00,
2013-09-06 09:22:00,55.0,41.0,-100.00,SSW,199,0.0,2.0,59,-99.99,,,0.00,,2013-09-06 15:22:00,
2013-09-06 09:34:00,55.0,41.0,-100.00,SSW,199,0.0,2.0,59,-99.99,,,0.00,,2013-09-06 15:34:00,
2013-09-06 09:40:00,68.0,39.0,-100.00,WNW,291,3.0,6.0,34,-99.99,,,0.00,,2013-09-06 15:40:00,
2013-09-06 10:13:00,68.0,39.0,-100.00,WNW,291,3.0,6.0,34,-99.99,,,0.00,,2013-09-06 16:13:00,
2013-09-06 10:24:00,68.0,39.0,-100.00,WNW,291,3.0,6.0,34,-99.99,,,0.00,,2013-09-06 16:24:00,
2013-09-06 10:33:00,68.0,39.0,-100.00,WNW,291,3.0,6.0,34,-99.99,,,0.00,,2013-09-06 16:33:00,
2013-09-06 10:40:00,73.0,37.0,-100.00,WNW,292,3.0,9.0,27,0.00,,,0.00,,2013-09-06 16:40:00,
2013-09-06 11:13:00,73.0,37.0,-100.00,WNW,292,3.0,9.0,27,0.00,,,0.00,,2013-09-06 17:13:00,
2013-09-06 11:24:00,73.0,37.0,-100.00,WNW,292,3.0,9.0,27,0.00,,,0.00,,2013-09-06 17:24:00,
2013-09-06 11:34:00,73.0,37.0,-100.00,WNW,292,3.0,9.0,27,0.00,,,0.00,,2013-09-06 17:34:00,
2013-09-06 11:40:00,76.0,36.0,-100.00,SSW,197,3.0,7.0,23,0.00,,,0.00,,2013-09-06 17:40:00,
2013-09-06 12:12:00,76.0,36.0,-100.00,SSW,197,3.0,7.0,23,0.00,,,0.00,,2013-09-06 18:12:00,
2013-09-06 12:22:00,76.0,36.0,-100.00,SSW,197,3.0,7.0,23,0.00,,,0.00,,2013-09-06 18:22:00,
2013-09-06 12:32:00,76.0,36.0,-100.00,SSW,197,3.0,7.0,23,0.00,,,0.00,,2013-09-06 18:32:00,
2013-09-06 12:40:00,80.0,35.0,-100.00,South,179,3.0,7.0,20,0.00,,,0.00,,2013-09-06 18:40:00,
2013-09-06 13:12:00,80.0,35.0,-100.00,South,179,3.0,7.0,20,0.00,,,0.00,,2013-09-06 19:12:00,
2013-09-06 13:22:00,80.0,35.0,-100.00,South,179,3.0,7.0,20,0.00,,,0.00,,2013-09-06 19:22:00,
2013-09-06 13:32:00,80.0,35.0,-100.00,South,179,3.0,7.0,20,0.00,,,0.00,,2013-09-06 19:32:00,
2013-09-06 13:40:00,83.0,35.0,-100.00,SE,135,3.0,8.0,18,0.00,,,0.00,,2013-09-06 19:40:00,
2013-09-06 14:12:00,83.0,35.0,-100.00,SE,135,3.0,8.0,18,0.00,,,0.00,,2013-09-06 20:12:00,
2013-09-06 14:23:00,83.0,35.0,-100.00,SE,135,3.0,8.0,18,0.00,,,0.00,,2013-09-06 20:23:00,
2013-09-06 14:32:00,83.0,35.0,-100.00,SE,135,3.0,8.0,18,0.00,,,0.00,,2013-09-06 20:32:00,
2013-09-06 14:40:00,80.0,33.0,-100.00,SSE,155,3.0,8.0,18,0.00,,,0.00,,2013-09-06 20:40:00,
2013-09-06 15:12:00,80.0,33.0,-100.00,SSE,155,3.0,8.0,18,0.00,,,0.00,,2013-09-06 21:12:00,
2013-09-06 15:22:00,80.0,33.0,-100.00,SSE,155,3.0,8.0,18,0.00,,,0.00,,2013-09-06 21:22:00,
2013-09-06 15:34:00,80.0,33.0,-100.00,SSE,155,3.0,8.0,18,0.00,,,0.00,,2013-09-06 21:34:00,
2013-09-06 15:40:00,80.0,30.0,-100.00,SSE,163,3.0,8.0,16,0.00,,,0.00,,2013-09-06 21:40:00,
2013-09-06 16:13:00,80.0,30.0,-100.00,SSE,163,3.0,8.0,16,0.00,,,0.00,,2013-09-06 22:13:00,
2013-09-06 16:23:00,80.0,30.0,-100.00,SSE,163,3.0,8.0,16,0.00,,,0.00,,2013-09-06 22:23:00,
2013-09-06 16:33:00,80.0,30.0,-100.00,SSE,163,3.0,8.0,16,0.00,,,0.00,,2013-09-06 22:33:00,
2013-09-06 16:40:00,78.0,28.0,-100.00,South,180,3.0,7.0,16,0.00,,,0.00,,2013-09-06 22:40:00,
2013-09-06 17:13:00,78.0,28.0,-100.00,South,180,3.0,7.0,16,0.00,,,0.00,,2013-09-06 23:13:00,
2013-09-06 17:23:00,78.0,28.0,-100.00,South,180,3.0,7.0,16,0.00,,,0.00,,2013-09-06 23:23:00,
2013-09-06 17:33:00,78.0,28.0,-100.00,South,180,3.0,7.0,16,0.00,,,0.00,,2013-09-06 23:33:00,